Location: Bieujac
(44.5398°N, 0.1549°W)
Time: 22:25:31
(UTC+00:00)

STARLINK-75 - Pass Details

Date: 17 November 2019
Orbit: 542 x 543 km, 53.0° (Epoch: 05 December)

Event Time Altitude Azimuth Distance (km) Brightness Sun altitude
Exits shadow 03:40:04 - 121° (ESE) 1,891 6.9 -35.3°
Enters shadow 04:45:42 -58° 231° (SW) 11,463 10.3 -23.7°
Maximum altitude 05:18:33 57° 141° (SE) 642 4.1 -17.8°
Drops below altitude 10° 05:22:35 10° 62° (ENE) 1,809 7.0 -17.1°
Sets 05:24:50 0° 59° (ENE) 2,706 7.9 -16.7°
